Flag for Turkey Weather past 2 weeks in Ankara, Turkey

Now
77 °F

Passing clouds.


Feels Like: 78 °F
Forecast: 61 / 92 °F
Wind: 6 mph from North

Location: Ankara / Esenboga

Current Time: Jul 24, 2014 at 9:01:29 PM

Latest Report: Jul 24, 2014 at 8:20 PM


Visibility: N/A

Pressure: 29.77 "Hg

Humidity: 42%

Dew point: 52 °F

Location of AnkaraLocation

Historic Weather in Ankara — Graph

°F

Ankara temperature yesterday

Maximum temperature yesterday: 93 °F (at 3:50 PM)
Minimum temperature yesterday: 59 °F (at 3:20 AM)
Average temperature yesterday: 79 °F

Past Weeks' High & Low Weather Summary

 TemperatureHumidityPressure
High95 °F (Jul 11, 3:50 PM)94% (Jul 19, 5:20 AM)29.98 "Hg (Jul 19, 5:20 AM)
Low57 °F (Jul 20, 5:20 AM)13% (Jul 10, 2:50 PM)29.71 "Hg (Jul 24, 3:50 PM)
Average76 °F45%29.87 "Hg
* Reported Jul 9 7:20 PM — Jul 24 7:50 PM, Ankara, Weather by CustomWeather, © 2014

Note: Actual official high and low records may vary slightly from our data, if they occured in-between our weather recording intervals... More about our weather records

Advertising

Ankara weather history for previous 24 hours

 ConditionsComfort  
Time TempWeatherWind HumidityBarometerVisibility
7:50 PM
Jul 24
77 °FPassing clouds.18 mph51%29.77 "HgN/A
7:20 PM81 °FScattered clouds.21 mph48%29.74 "HgN/A
6:50 PM88 °FScattered clouds.14 mph24%29.71 "HgN/A
6:20 PM90 °FScattered clouds.16 mph21%29.71 "HgN/A
5:50 PM91 °FScattered clouds.16 mph16%29.71 "HgN/A
5:20 PM91 °FScattered clouds.14 mph20%29.71 "HgN/A
4:50 PM91 °FScattered clouds.13 mph21%29.71 "HgN/A
4:20 PM91 °FScattered clouds.15 mph23%29.71 "HgN/A
3:50 PM91 °FScattered clouds.12 mph23%29.71 "HgN/A
3:20 PM91 °FScattered clouds.13 mph26%29.74 "HgN/A
2:50 PM91 °FScattered clouds.13 mph24%29.74 "HgN/A
2:20 PM91 °FScattered clouds.10 mph24%29.74 "HgN/A
1:50 PM91 °FScattered clouds.14 mph26%29.74 "HgN/A
1:20 PM91 °FScattered clouds.13 mph24%29.77 "HgN/A
12:50 PM91 °FPassing clouds.10 mph24%29.77 "HgN/A
12:20 PM90 °FPassing clouds.7 mph27%29.77 "HgN/A
11:50 AM88 °FPassing clouds.3 mph29%29.77 "HgN/A
11:20 AM86 °FPassing clouds.6 mph31%29.80 "HgN/A
10:50 AM86 °FPassing clouds.3 mph29%29.80 "HgN/A
10:20 AM84 °FPassing clouds.2 mph33%29.80 "HgN/A
9:50 AM82 °FPassing clouds.2 mph32%29.80 "HgN/A
9:20 AM79 °FPassing clouds.2 mph34%29.80 "HgN/A
8:20 AM72 °FPassing clouds.1 mph47%29.83 "HgN/A
7:50 AM68 °FPassing clouds.3 mph53%29.83 "HgN/A
7:20 AM66 °FPassing clouds.3 mph60%29.83 "HgN/A
6:50 AM64 °FSunny.2 mph60%29.83 "Hg10 mi
6:20 AM63 °FClear.2 mph68%29.83 "Hg10 mi
5:50 AM63 °FClear.1 mph64%29.83 "Hg10 mi
5:20 AM63 °FClear.2 mph59%29.83 "Hg10 mi
4:50 AM66 °FClear.2 mph56%29.83 "Hg10 mi
4:20 AM66 °FClear.2 mph56%29.83 "Hg10 mi
3:50 AM63 °FPassing clouds.1 mph64%29.83 "HgN/A
3:20 AM66 °FClear.1 mph56%29.83 "Hg10 mi
2:50 AM68 °FClear.1 mph49%29.83 "Hg10 mi
2:20 AM66 °FClear.3 mph52%29.83 "Hg10 mi
1:50 AM68 °FClear.2 mph53%29.83 "Hg10 mi
1:20 AM70 °FClear.1 mph46%29.83 "Hg10 mi
12:50 AM70 °FClear.2 mph50%29.83 "Hg10 mi
12:20 AM72 °FClear.5 mph47%29.83 "Hg10 mi
11:50 PM
Jul 23
75 °FClear.5 mph39%29.83 "Hg10 mi
11:20 PM77 °FClear.3 mph36%29.83 "Hg10 mi
10:50 PM79 °FClear.6 mph32%29.83 "Hg10 mi
9:50 PM79 °FClear.5 mph32%29.83 "Hg10 mi
9:20 PM81 °FPassing clouds.5 mph28%29.80 "HgN/A
Weather by CustomWeather, © 2014

See weather overviewHow to use our weather pages